This is the latest recevied weather packets stored in our database for station/object W4GAP. If no packets are shown the sender has not sent any weather packets the latest 10 day(s).
| Time | Temp. | Humidity | Pressure | Rain* | Wind** | Luminosity | Snow |
|---|---|---|---|---|---|---|---|
| 1778180463 | 19.44° C | 85% | 1009.1 hPa | 0 mm | - | 173 W/m² | - |
| 1778180161 | 18.89° C | 85% | 1009.3 hPa | 0 mm | - | 152 W/m² | - |
| 1778179857 | 18.89° C | 87% | 1009.5 hPa | 0 mm | - | 255 W/m² | - |
| 1778179556 | 18.33° C | 87% | 1009.4 hPa | 0 mm | - | 567 W/m² | - |
| 1778179253 | 18.33° C | 87% | 1009.6 hPa | 0 mm | - | 137 W/m² | - |
| 1778178949 | 18.33° C | 89% | 1009.4 hPa | 0 mm | - | 154 W/m² | - |
| 1778178646 | 18.33° C | 88% | 1009.8 hPa | 0 mm | - | 115 W/m² | - |
| 1778178342 | 18.33° C | 88% | 1009.5 hPa | 0 mm | - | 106 W/m² | - |
| 1778178038 | 18.33° C | 88% | 1009.6 hPa | 0 mm | - | 116 W/m² | - |
| 1778177736 | 18.33° C | 89% | 1009.4 hPa | 0 mm | - | 101 W/m² | - |
| 1778177432 | 18.33° C | 88% | 1009.4 hPa | 0 mm | - | 115 W/m² | - |
| 1778177128 | 18.33° C | 89% | 1009.5 hPa | 0 mm | - | 38 W/m² | - |
| 1778176825 | 18.33° C | 88% | 1009.6 hPa | 0 mm | - | 36 W/m² | - |
| 1778176521 | 18.89° C | 89% | 1009.5 hPa | 0 mm | - | 34 W/m² | - |
| 1778176219 | 18.89° C | 89% | 1009.7 hPa | 0 mm | - | 48 W/m² | - |
| 1778175916 | 18.89° C | 89% | 1009.7 hPa | 0 mm | - | 23 W/m² | - |
| 1778175614 | 18.89° C | 88% | 1009.5 hPa | 0 mm | - | 42 W/m² | - |
| 1778175310 | 18.89° C | 89% | 1009.4 hPa | 0 mm | - | 56 W/m² | - |
| 1778175008 | 18.89° C | 89% | 1009.6 hPa | 0 mm | - | 132 W/m² | - |
| 1778174703 | 18.89° C | 89% | 1009.5 hPa | 0 mm | - | 46 W/m² | - |
| 1778174400 | 18.89° C | 91% | 1009.1 hPa | 0 mm | - | 92 W/m² | - |
| 1778174096 | 18.89° C | 93% | 1009.3 hPa | 0 mm | - | 138 W/m² | - |
| 1778173794 | 18.33° C | 96% | 1009.5 hPa | 0 mm | - | 380 W/m² | - |
| 1778173490 | 18.89° C | 97% | 1009.4 hPa | 0 mm | - | 140 W/m² | - |
| 1778173186 | 18.89° C | 98% | 1009.3 hPa | 0 mm | - | 75 W/m² | - |
* Rain latest hour (hover to see other rain measurements)
** Current wind speed in m/s (hover to see current wind gust speed)